Alexander City, AL

1:26 PM CST on December 07, 2019 (GMT -0600)
Russell

Weather History for KALX - October, 2019

Change the Weather History Date:

Wednesday, October 23, 2019

  Actual Average (WUND) Record (WUND)
Temperature  
Mean Temperature 54 °F -  
Max Temperature 70 °F - - (-1)
Min Temperature 39 °F - - (-1)
Degree Days  
Heating Degree Days 10    
Growing Degree Days 4 (Base 50)    
Moisture  
Dew Point 41 °F    
Average Humidity 69    
Maximum Humidity 97    
Minimum Humidity 28    
Precipitation  
Precipitation 0.00 in - - ()
Sea Level Pressure  
Sea Level Pressure 30.17 in    
Wind  
Wind Speed 2 mph (NNE)    
Max Wind Speed 7 mph    
Max Gust Speed -    
Visibility 10 miles    
Events      
Averages and records for this station are not official NWS values.
T = Trace of Precipitation, MM = Missing Value Source: NWS Daily Summary

Daily Weather History Graph

Daily Weather History Graph

Search for Another Location

Airport or City:

Astronomy

Oct. 23, 2019 Rise Set
Actual Time 6:54 AM CDT 6:01 PM CDT
Civil Twilight 6:28 AM CDT 6:26 PM CDT
Nautical Twilight 6:00 AM CDT 6:55 PM CDT
Astronomical Twilight 5:31 AM CDT 7:24 PM CDT
Moon 1:35 AM CDT (10/23) 3:30 PM CDT (10/23)
Length of Visible Light 11h 57m
Length of Day
11h 07m
Waning Crescent, 26% of the Moon is Illuminated
Oct 23
Waning Crescent
Oct 27
New
Nov 4
First Quarter
Nov 12
Full
Nov 19
Last Quarter

Hourly Weather History & Observations

Time (CDT) Temp. Windchill Dew Point Humidity Pressure Visibility Wind Dir Wind Speed Gust Speed Precip Events Conditions
12:15 AM 46.6 °F - 42.8 °F 87% 30.12 in 10.0 mi North 3.5 mph - N/A   Clear
12:35 AM 45.5 °F - 43.3 °F 92% 30.12 in 10.0 mi Calm Calm - N/A   Clear
12:55 AM 46.0 °F - 42.4 °F 87% 30.12 in 10.0 mi Calm Calm - N/A   Clear
1:15 AM 44.6 °F 43.1 °F 42.8 °F 93% 30.13 in 10.0 mi NW 3.5 mph - N/A   Clear
1:35 AM 45.0 °F - 42.3 °F 90% 30.14 in 10.0 mi Calm Calm - N/A   Clear
1:55 AM 44.4 °F - 41.7 °F 90% 30.14 in 10.0 mi Calm Calm - N/A   Clear
2:15 AM 47.1 °F - 41.0 °F 79% 30.14 in 10.0 mi NW 5.8 mph - N/A   Clear
2:35 AM 48.0 °F - 40.5 °F 75% 30.14 in 10.0 mi NW 4.6 mph - N/A   Clear
2:55 AM 46.8 °F - 41.2 °F 81% 30.14 in 10.0 mi NNW 3.5 mph - N/A   Clear
3:15 AM 44.2 °F - 40.5 °F 87% 30.14 in 10.0 mi Calm Calm - N/A   Clear
3:35 AM 41.0 °F - 39.6 °F 95% 30.14 in 10.0 mi Calm Calm - N/A   Clear
3:55 AM 41.4 °F - 40.3 °F 96% 30.14 in 10.0 mi Calm Calm - N/A   Clear
4:15 AM 42.3 °F - 40.8 °F 95% 30.14 in 10.0 mi Calm Calm - N/A   Clear
4:55 AM 41.2 °F - 39.9 °F 95% 30.16 in 10.0 mi Calm Calm - N/A   Clear
5:15 AM 41.0 °F - 40.1 °F 97% 30.16 in 10.0 mi Calm Calm - N/A   Clear
5:35 AM 41.4 °F - 40.3 °F 96% 30.15 in 10.0 mi Calm Calm - N/A   Clear
5:55 AM 39.6 °F - 38.7 °F 97% 30.16 in 10.0 mi Calm Calm - N/A   Clear
6:15 AM 40.3 °F - 39.6 °F 97% 30.16 in 10.0 mi Calm Calm - N/A   Clear
6:35 AM 39.6 °F - 38.7 °F 97% 30.16 in 10.0 mi Calm Calm - N/A   Clear
6:55 AM 41.0 °F - 40.1 °F 97% 30.16 in 10.0 mi Calm Calm - N/A   Clear
7:15 AM 40.3 °F - 39.4 °F 97% 30.16 in 10.0 mi Calm Calm - N/A   Clear
7:35 AM 41.4 °F - 39.7 °F 94% 30.17 in 10.0 mi Calm Calm - N/A   Clear
7:55 AM 41.7 °F - 40.6 °F 96% 30.17 in 10.0 mi Calm Calm - N/A   Clear
8:15 AM 45.7 °F - 43.0 °F 90% 30.18 in 10.0 mi Calm Calm - N/A   Clear
8:35 AM 49.8 °F - 43.7 °F 79% 30.19 in 10.0 mi Calm Calm - N/A   Clear
8:55 AM 53.1 °F - 43.5 °F 70% 30.20 in 10.0 mi Calm Calm - N/A   Clear
9:15 AM 55.4 °F - 39.2 °F 54% 30.20 in 10.0 mi NNE 4.6 mph - N/A   Clear
9:35 AM 58.3 °F - 38.1 °F 47% 30.21 in 10.0 mi North 3.5 mph - N/A   Clear
9:55 AM 59.4 °F - 37.2 °F 44% 30.21 in 10.0 mi NNE 4.6 mph - N/A   Clear
10:15 AM 60.6 °F - 37.4 °F 42% 30.21 in 10.0 mi NNE 5.8 mph - N/A   Clear
10:35 AM 61.7 °F - 36.0 °F 38% 30.22 in 10.0 mi North 5.8 mph - N/A   Clear
10:55 AM 62.6 °F - 37.6 °F 40% 30.22 in 10.0 mi North 3.5 mph - N/A   Clear
11:15 AM 62.8 °F - 36.7 °F 38% 30.22 in 10.0 mi Calm Calm - N/A   Clear
11:35 AM 64.2 °F - 36.1 °F 35% 30.22 in 10.0 mi ENE 4.6 mph - N/A   Clear
11:55 AM 65.5 °F - 35.4 °F 33% 30.21 in 10.0 mi NE 3.5 mph - N/A   Clear
12:15 PM 65.5 °F - 36.5 °F 34% 30.20 in 10.0 mi NNE 6.9 mph - N/A   Clear
12:55 PM 65.8 °F - 36.7 °F 34% 30.18 in 10.0 mi ENE 4.6 mph - N/A   Clear
1:15 PM 66.6 °F - 37.0 °F 34% 30.17 in 10.0 mi NNE 3.5 mph - N/A   Clear
1:35 PM 67.5 °F - 36.5 °F 32% 30.16 in 10.0 mi NNE 3.5 mph - N/A   Clear
1:55 PM 67.3 °F - 36.5 °F 32% 30.16 in 10.0 mi NW 3.5 mph - N/A   Clear
2:15 PM 68.2 °F - 35.8 °F 30% 30.15 in 10.0 mi North 4.6 mph - N/A   Clear
2:35 PM 68.4 °F - 35.2 °F 30% 30.14 in 10.0 mi NE 4.6 mph - N/A   Clear
2:55 PM 68.9 °F - 35.1 °F 29% 30.14 in 10.0 mi ENE 3.5 mph - N/A   Clear
3:15 PM 69.6 °F - 35.2 °F 28% 30.14 in 10.0 mi NE 5.8 mph - N/A   Clear
3:35 PM 68.7 °F - 34.5 °F 28% 30.14 in 10.0 mi Calm Calm - N/A   Clear
3:55 PM 70.0 °F - 36.7 °F 30% 30.14 in 10.0 mi East 4.6 mph - N/A   Clear
4:15 PM 69.4 °F - 36.0 °F 29% 30.14 in 10.0 mi East 5.8 mph - N/A   Clear
4:35 PM 69.3 °F - 36.3 °F 30% 30.14 in 10.0 mi East 4.6 mph - N/A   Clear
4:55 PM 68.7 °F - 36.0 °F 30% 30.14 in 10.0 mi East 4.6 mph - N/A   Clear
5:15 PM 68.0 °F - 40.1 °F 36% 30.14 in 10.0 mi Calm Calm - N/A   Clear
5:35 PM 66.7 °F - 42.4 °F 41% 30.15 in 10.0 mi Calm Calm - N/A   Clear
6:15 PM 59.4 °F - 44.6 °F 58% 30.16 in 10.0 mi Calm Calm - N/A   Clear
6:35 PM 56.3 °F - 46.6 °F 70% 30.16 in 10.0 mi Calm Calm - N/A   Clear
6:55 PM 55.9 °F - 46.0 °F 69% 30.16 in 10.0 mi Calm Calm - N/A   Clear
7:15 PM 53.8 °F - 45.5 °F 74% 30.16 in 10.0 mi Calm Calm - N/A   Clear
7:35 PM 52.2 °F - 46.4 °F 81% 30.17 in 10.0 mi Calm Calm - N/A   Clear
7:55 PM 52.5 °F - 46.2 °F 79% 30.17 in 10.0 mi Calm Calm - N/A   Clear
8:15 PM 51.1 °F - 45.9 °F 82% 30.17 in 10.0 mi Calm Calm - N/A   Clear
8:35 PM 49.6 °F - 46.2 °F 88% 30.18 in 10.0 mi Calm Calm - N/A   Clear
8:55 PM 49.3 °F - 46.0 °F 89% 30.18 in 10.0 mi Calm Calm - N/A   Clear
9:35 PM 48.6 °F - 46.0 °F 91% 30.18 in 10.0 mi Calm Calm - N/A   Clear
9:55 PM 47.3 °F - 45.1 °F 92% 30.19 in 10.0 mi Calm Calm - N/A   Clear
10:15 PM 47.3 °F - 45.3 °F 93% 30.19 in 10.0 mi Calm Calm - N/A   Clear
10:35 PM 46.4 °F - 44.4 °F 93% 30.19 in 10.0 mi Calm Calm - N/A   Clear
10:55 PM 46.4 °F - 44.6 °F 93% 30.19 in 10.0 mi Calm Calm - N/A   Clear
11:15 PM 46.2 °F - 44.6 °F 94% 30.19 in 10.0 mi Calm Calm - N/A   Clear
11:35 PM 46.0 °F - 44.1 °F 93% 30.19 in 10.0 mi Calm Calm - N/A   Clear
11:55 PM 45.7 °F - 43.9 °F 93% 30.19 in 10.0 mi Calm Calm - N/A   Clear